Weather History for Juneau, AK

Change the Weather History Date:

Sunday, March 31, 2013

  Actual Average Record
Temperature  
Mean Temperature 38 °F 37 °F  
Max Temperature 42 °F 44 °F 52 °F (1958)
Min Temperature 34 °F 30 °F 9 °F (1963)
Degree Days  
Heating Degree Days 27 28  
Month to date heating degree days 1086 966  
Since 1 July heating degree days 7157 6804  
Cooling Degree Days 0 0  
Month to date cooling degree days 0 0  
Year to date cooling degree days 0 0  
Moisture  
Dew Point 35 °F    
Average Humidity 93    
Maximum Humidity 100    
Minimum Humidity 85    
Precipitation  
Precipitation T in 0.11 in 0.80 in (2000)
Month to date precipitation 2.36 3.78  
Year to date precipitation 16.67 13.26  
Snow  
Snow 0.00 in 0.20 in 4.40 in (1975)
Month to date snowfall 8.3 11.6  
Since 1 July snowfall 71.7 85.6  
Snow Depth -    
Sea Level Pressure  
Sea Level Pressure 30.26 in    
Wind  
Wind Speed 5 mph (WSW)    
Max Wind Speed 14 mph    
Max Gust Speed 16 mph    
Visibility 7 miles    
Events Rain    
T = Trace of Precipitation, MM = Missing Value Source: NWS Daily Summary

Daily Weather History Graph

Daily Weather History Graph

Search for Another Location

Airport:

Trip Planner

Search our weather history database for the weather conditions in past years. The results will help you decide how hot, cold, wet, or windy it might be!

Date:

Astronomy

Mar. 31, 2013 Rise Set
Actual Time 6:27 AM AKDT 7:38 PM AKDT
Civil Twilight 5:46 AM AKDT 8:19 PM AKDT
Nautical Twilight 4:56 AM AKDT 9:09 PM AKDT
Astronomical Twilight 4:00 AM AKDT 10:07 PM AKDT
Moon 12:50 AM AKDT (3/31) 8:21 AM AKDT (3/31)
Length of Visible Light 14h 32m
Length of Day
13h 11m
Waning Gibbous, 76% of the Moon is Illuminated
Mar 31
Waning Gibbous
Apr 2
Last Quarter
Apr 10
New
Apr 18
First Quarter
Apr 25
Full

Hourly Weather History & Observations

Time (AKDT) Temp. Windchill Dew Point Humidity Pressure Visibility Wind Dir Wind Speed Gust Speed Precip Events Conditions
12:53 AM 36.0 °F - 35.1 °F 97% 30.38 in 6.0 mi Calm Calm - 0.01 in   Overcast
1:53 AM 36.0 °F - 36.0 °F 100% 30.37 in 6.0 mi Calm Calm - N/A   Overcast
2:53 AM 35.1 °F - 34.0 °F 96% 30.36 in 4.0 mi Calm Calm - N/A   Overcast
3:53 AM 36.0 °F - 35.1 °F 97% 30.36 in 4.0 mi Calm Calm - 0.00 in Rain Light Rain
4:53 AM 35.1 °F - 34.0 °F 96% 30.35 in 2.0 mi Calm Calm - 0.00 in   Overcast
5:15 AM 35.1 °F - 35.1 °F 100% 30.35 in 2.5 mi Calm Calm - 0.00 in Rain Light Rain
5:53 AM 35.1 °F - 34.0 °F 96% 30.35 in 2.5 mi Calm Calm - 0.00 in   Overcast
6:22 AM 35.1 °F - 34.0 °F 96% 30.34 in 1.2 mi Calm Calm - N/A   Overcast
6:53 AM 34.0 °F - 34.0 °F 100% 30.35 in 1.0 mi Calm Calm - N/A   Overcast
7:33 AM 35.1 °F - 35.1 °F 100% 30.33 in 2.0 mi Calm Calm - N/A   Mostly Cloudy
7:53 AM 36.0 °F - 35.1 °F 97% 30.33 in 2.0 mi Calm Calm - N/A   Overcast
8:53 AM 37.0 °F 34.5 °F 36.0 °F 96% 30.32 in 2.5 mi West 3.5 mph - N/A   Overcast
9:53 AM 37.9 °F 35.5 °F 37.0 °F 97% 30.31 in 2.5 mi WSW 3.5 mph - N/A   Mostly Cloudy
10:35 AM 37.9 °F 30.9 °F 37.0 °F 97% 30.31 in 6.0 mi WSW 10.4 mph - N/A   Overcast
10:53 AM 39.0 °F 32.8 °F 37.9 °F 96% 30.31 in 6.0 mi WSW 9.2 mph - N/A   Overcast
11:53 AM 39.9 °F 35.8 °F 36.0 °F 86% 30.29 in 10.0 mi SW 5.8 mph - N/A   Overcast
12:21 PM 41.0 °F 35.2 °F 37.0 °F 86% 30.28 in 10.0 mi WSW 9.2 mph - N/A   Overcast
12:53 PM 41.0 °F 34.3 °F 37.0 °F 86% 30.27 in 10.0 mi SW 11.5 mph - N/A   Overcast
1:53 PM 41.0 °F 33.9 °F 37.0 °F 86% 30.25 in 10.0 mi WSW 12.7 mph - N/A   Overcast
2:53 PM 39.9 °F 33.9 °F 35.1 °F 83% 30.23 in 10.0 mi WSW 9.2 mph - N/A   Overcast
3:53 PM 41.0 °F 36.4 °F 35.1 °F 79% 30.20 in 10.0 mi WSW 6.9 mph - N/A   Overcast
4:53 PM 41.0 °F 35.8 °F 35.1 °F 79% 30.18 in 10.0 mi WSW 8.1 mph - N/A   Overcast
5:53 PM 39.9 °F 35.1 °F 34.0 °F 79% 30.16 in 10.0 mi WSW 6.9 mph - N/A   Overcast
6:53 PM 39.9 °F 36.7 °F 34.0 °F 79% 30.13 in 10.0 mi West 4.6 mph - N/A   Overcast
7:53 PM 39.0 °F 36.8 °F 33.1 °F 79% 30.11 in 10.0 mi West 3.5 mph - N/A   Overcast
8:53 PM 37.0 °F 34.5 °F 33.1 °F 86% 30.10 in 10.0 mi NW 3.5 mph - N/A   Overcast
9:53 PM 36.0 °F - 34.0 °F 93% 30.08 in 10.0 mi Calm Calm - N/A   Overcast
10:53 PM 36.0 °F - 34.0 °F 93% 30.07 in 10.0 mi Calm Calm - N/A   Overcast
11:53 PM 35.1 °F 32.2 °F 33.1 °F 92% 30.06 in 10.0 mi ESE 3.5 mph - N/A   Overcast